Flag for U.S.A. Weather past 2 weeks in Little Rock, Arkansas, U.S.A.

Now
43 °F

Sunny.


Feels Like: 40 °F
Forecast: 36 / 59 °F
Wind: 5 mph from Northwest

Location: Adams Field

Current Time: Jan 26, 2015 at 9:17:58 AM

Latest Report: Jan 26, 2015 at 8:53 AM


Visibility: 10 mi

Pressure: 30.16 "Hg

Humidity: 62%

Dew point: 31 °F

Location of Little RockLocation

Historic Weather in Little Rock — Graph

°F

Little Rock temperature yesterday

Maximum temperature yesterday: 61 °F (at 11:53 AM)
Minimum temperature yesterday: 41 °F (at 4:53 AM)
Average temperature yesterday: 49 °F

Past Weeks' High & Low Weather Summary

 TemperatureHumidityPressure
High68 °F (Jan 18, 2:53 PM)93% (Jan 11, 6:57 PM)30.57 "Hg (Jan 11, 6:57 PM)
Low22 °F (Jan 14, 3:53 AM)12% (Jan 18, 2:53 PM)29.74 "Hg (Jan 25, 11:53 AM)
Average43 °F60%30.19 "Hg
* Reported Jan 11 7:01 AM — Jan 26 7:53 AM, Little Rock, Weather by CustomWeather, © 2014

Note: Actual official high and low records may vary slightly from our data, if they occured in-between our weather recording intervals... More about our weather records

Advertising

Little Rock weather history for previous 24 hours

 ConditionsComfort  
Time TempWeatherWind HumidityBarometerVisibility
7:53 AM
Jan 26
35 °FPassing clouds.5 mph78%30.15 "Hg10 mi
6:53 AM37 °FPassing clouds.5 mph73%30.16 "Hg10 mi
5:53 AM36 °FPassing clouds.3 mph75%30.12 "Hg10 mi
4:53 AM39 °FPassing clouds.5 mph67%30.11 "Hg10 mi
3:53 AM40 °FPassing clouds.6 mph68%30.11 "Hg10 mi
2:53 AM43 °FPassing clouds.12 mph62%30.10 "Hg10 mi
1:53 AM42 °FPassing clouds.8 mph65%30.08 "Hg10 mi
12:53 AM44 °FPassing clouds.12 mph63%30.06 "Hg10 mi
11:53 PM
Jan 25
45 °FPassing clouds.16 mph60%30.05 "Hg10 mi
10:53 PM47 °FPassing clouds.15 mph56%30.03 "Hg10 mi
9:53 PM48 °FOvercast.16 mph54%30.00 "Hg10 mi
8:53 PM49 °FOvercast.17 mph50%29.99 "Hg10 mi
7:53 PM50 °FOvercast.21 mph48%29.98 "Hg10 mi
6:53 PM50 °FOvercast.10 mph48%29.96 "Hg10 mi
5:53 PM51 °FOvercast.20 mph44%29.91 "Hg10 mi
4:53 PM53 °FCloudy.24 mph45%29.87 "Hg10 mi
3:53 PM54 °FMostly cloudy.26 mph45%29.84 "Hg10 mi
2:53 PM56 °FMostly cloudy.25 mph40%29.80 "Hg10 mi
1:53 PM58 °FOvercast.23 mph38%29.76 "Hg10 mi
12:53 PM60 °FPartly sunny.17 mph35%29.75 "Hg10 mi
11:53 AM61 °FPartly sunny.21 mph36%29.74 "Hg10 mi
10:53 AM58 °FScattered clouds.8 mph46%29.75 "Hg10 mi
9:53 AM51 °FPassing clouds.12 mph56%29.78 "Hg10 mi
Weather by CustomWeather, © 2014

See weather overviewHow to use our weather pages